LNNPO ENKJ-ENKJ

Flight info

Callsign LNNPO
Flight time 0h 3m
Altitude 2500
Route ENKJ/ENKJ
Aircraft C172/L-SFG/C

Departure

Time 2026-05-07 14:15
Airport Lillestrøm Airfield, Kjeller (ENKJ)

Arrival

Time 2026-05-07 14:19
Airport Lillestrøm Airfield, Kjeller (ENKJ)
Time Latitude Longitude Altitude Speed Heading
2026-05-07 14:04 59.96795 11.04937 364 ft 0 kts 240°
2026-05-07 14:09 59.96790 11.04921 365 ft 5 kts 234°
2026-05-07 14:10 59.96768 11.04819 365 ft 5 kts 307°
2026-05-07 14:10 59.96809 11.04737 365 ft 3 kts 340°
2026-05-07 14:10 59.96816 11.04738 365 ft 0 kts 44°
2026-05-07 14:11 59.96817 11.04740 365 ft 2 kts 51°
2026-05-07 14:12 59.96790 11.04783 365 ft 5 kts 165°
2026-05-07 14:12 59.96767 11.04818 365 ft 6 kts 146°
2026-05-07 14:12 59.96751 11.04812 365 ft 0 kts 258°
2026-05-07 14:12 59.96749 11.04793 365 ft 0 kts 210°
2026-05-07 14:13 59.96746 11.04787 365 ft 3 kts 237°
2026-05-07 14:14 59.96715 11.04671 364 ft 9 kts 252°
2026-05-07 14:14 59.96735 11.04589 363 ft 17 kts 301°
2026-05-07 14:14 59.96909 11.04052 367 ft 66 kts 302°
2026-05-07 14:14 59.97158 11.03275 551 ft 67 kts 296°
2026-05-07 14:15 59.97407 11.02470 727 ft 69 kts 294°
2026-05-07 14:15 59.97627 11.01623 916 ft 69 kts 290°
2026-05-07 14:15 59.97845 11.00760 1088 ft 71 kts 292°
2026-05-07 14:15 59.97673 10.99909 1183 ft 80 kts 208°
2026-05-07 14:16 59.97129 10.99367 1233 ft 93 kts 190°
2026-05-07 14:16 59.96552 10.99925 1266 ft 101 kts 130°
2026-05-07 14:16 59.96098 11.01039 1303 ft 104 kts 128°
2026-05-07 14:16 59.95655 11.02223 1327 ft 108 kts 125°
2026-05-07 14:17 59.95230 11.03462 1363 ft 108 kts 122°
2026-05-07 14:17 59.94810 11.04713 1384 ft 109 kts 126°
2026-05-07 14:17 59.94485 11.06071 1282 ft 109 kts 97°
2026-05-07 14:17 59.94751 11.07337 1154 ft 100 kts 33°
2026-05-07 14:18 59.95411 11.07413 896 ft 96 kts 340°
2026-05-07 14:18 59.95933 11.06873 741 ft 74 kts 322°
2026-05-07 14:18 59.96241 11.06136 575 ft 66 kts 296°
2026-05-07 14:18 59.96488 11.05357 465 ft 67 kts 299°
2026-05-07 14:19 59.96737 11.04584 364 ft 61 kts 300°
2026-05-07 14:19 59.96891 11.04127 358 ft 14 kts 314°
2026-05-07 14:19 59.96872 11.04147 358 ft 6 kts 113°
2026-05-07 14:19 59.96842 11.04256 360 ft 13 kts 122°
2026-05-07 14:20 59.96777 11.04460 362 ft 19 kts 125°
2026-05-07 14:20 59.96719 11.04646 364 ft 12 kts 108°
2026-05-07 14:20 59.96747 11.04789 364 ft 10 kts 68°
2026-05-07 14:20 59.96740 11.04865 365 ft 6 kts 114°
2026-05-07 14:21 59.96748 11.04915 365 ft 2 kts 12°
2026-05-07 14:21 59.96759 11.04905 365 ft 2 kts 320°
2026-05-07 14:21 59.96761 11.04902 365 ft 0 kts 318°
2026-05-07 14:39 59.96768 11.04864 365 ft 8 kts 262°
2026-05-07 14:40 59.96755 11.04812 365 ft 0 kts 238°
2026-05-07 14:40 59.96749 11.04795 365 ft 7 kts 238°
2026-05-07 14:40 59.96720 11.04633 363 ft 13 kts 303°
2026-05-07 14:41 59.96775 11.04467 362 ft 27 kts 302°
2026-05-07 14:41 59.96972 11.03858 378 ft 69 kts 302°
2026-05-07 14:41 59.97245 11.03013 537 ft 73 kts 294°
2026-05-07 14:41 59.97475 11.02139 734 ft 70 kts 291°
2026-05-07 14:42 59.97689 11.01235 921 ft 71 kts 289°
2026-05-07 14:42 59.97928 11.00382 1097 ft 73 kts 306°
2026-05-07 14:42 59.98378 10.99920 1273 ft 75 kts 342°
2026-05-07 14:42 59.98933 10.99810 1366 ft 90 kts 351°
2026-05-07 14:43 59.99596 10.99773 1451 ft 99 kts 359°
2026-05-07 14:43 60.00318 10.99842 1516 ft 106 kts 359°
2026-05-07 14:43 60.01060 10.99986 1566 ft 110 kts
2026-05-07 14:43 60.01836 11.00168 1553 ft 115 kts
2026-05-07 14:44 60.02636 11.00417 1574 ft 114 kts
2026-05-07 14:44 60.03406 11.00686 1614 ft 111 kts
2026-05-07 14:44 60.04161 11.00923 1632 ft 110 kts
2026-05-07 14:44 60.04933 11.01100 1638 ft 112 kts
2026-05-07 14:45 60.05698 11.01211 1689 ft 108 kts
2026-05-07 14:45 60.06456 11.01323 1702 ft 110 kts
2026-05-07 14:45 60.07241 11.01345 1697 ft 112 kts 357°
2026-05-07 14:45 60.08012 11.01406 1744 ft 110 kts 360°
2026-05-07 14:46 60.08785 11.01493 1767 ft 111 kts 359°
2026-05-07 14:46 60.09560 11.01604 1797 ft 111 kts
2026-05-07 14:46 60.10336 11.01758 1820 ft 112 kts
2026-05-07 14:46 60.11095 11.02021 1847 ft 111 kts
2026-05-07 14:47 60.11867 11.02355 1830 ft 114 kts 11°
2026-05-07 14:47 60.12639 11.02722 1837 ft 114 kts 12°
2026-05-07 14:47 60.13427 11.03088 1815 ft 115 kts 10°
2026-05-07 14:47 60.14206 11.03394 1816 ft 114 kts
2026-05-07 14:48 60.14990 11.03605 1847 ft 110 kts
2026-05-07 14:48 60.15756 11.03785 1831 ft 113 kts
2026-05-07 14:48 60.16533 11.03948 1852 ft 111 kts
2026-05-07 14:48 60.17314 11.04197 1815 ft 116 kts
2026-05-07 14:49 60.18119 11.04540 1789 ft 118 kts 11°
2026-05-07 14:49 60.18914 11.04941 1751 ft 119 kts 11°
2026-05-07 14:49 60.19723 11.05361 1715 ft 120 kts 12°
2026-05-07 14:49 60.20523 11.05783 1696 ft 118 kts 10°
2026-05-07 14:50 60.21318 11.06181 1671 ft 118 kts 12°
2026-05-07 14:50 60.22129 11.06591 1630 ft 119 kts 12°
2026-05-07 14:50 60.22902 11.06940 1561 ft 108 kts 11°
2026-05-07 14:50 60.23567 11.07334 1544 ft 87 kts 26°
2026-05-07 14:51 60.23839 11.08391 1407 ft 86 kts 94°
2026-05-07 14:51 60.23498 11.09294 1224 ft 88 kts 151°
2026-05-07 14:51 60.22964 11.09745 1073 ft 80 kts 174°
2026-05-07 14:51 60.22433 11.09625 951 ft 76 kts 196°
2026-05-07 14:52 60.21945 11.09353 932 ft 69 kts 196°
2026-05-07 14:52 60.21457 11.09094 954 ft 76 kts 195°
2026-05-07 14:52 60.20922 11.08759 1038 ft 81 kts 199°
2026-05-07 14:52 60.20380 11.08447 1146 ft 82 kts 198°
2026-05-07 14:53 60.19805 11.08133 1226 ft 88 kts 192°
2026-05-07 14:53 60.19247 11.07720 1340 ft 86 kts 226°
2026-05-07 14:53 60.19112 11.06533 1350 ft 95 kts 271°
2026-05-07 14:53 60.19274 11.05225 1394 ft 97 kts 294°
2026-05-07 14:54 60.19789 11.04240 1399 ft 106 kts 329°
2026-05-07 14:54 60.20499 11.03983 1452 ft 105 kts
2026-05-07 14:54 60.21196 11.04470 1428 ft 105 kts 21°
2026-05-07 14:54 60.21872 11.05030 1419 ft 105 kts 26°
2026-05-07 14:55 60.22541 11.05607 1407 ft 104 kts 20°
2026-05-07 14:55 60.23201 11.06250 1363 ft 107 kts 24°
2026-05-07 14:55 60.23867 11.06911 1378 ft 104 kts 27°
2026-05-07 14:55 60.24536 11.07472 1357 ft 105 kts 15°
2026-05-07 14:56 60.25205 11.08008 1372 ft 103 kts 36°
2026-05-07 14:56 60.25469 11.09277 1392 ft 105 kts 98°
2026-05-07 14:56 60.25021 11.10399 1320 ft 106 kts 158°
2026-05-07 14:56 60.24287 11.10647 1268 ft 102 kts 179°
2026-05-07 14:57 60.23608 11.10319 1169 ft 102 kts 202°
2026-05-07 14:57 60.22962 11.09933 1078 ft 97 kts 198°
2026-05-07 14:57 60.22315 11.09566 927 ft 90 kts 200°
2026-05-07 14:57 60.21751 11.09249 768 ft 77 kts 199°
2026-05-07 14:58 60.21278 11.08976 686 ft 62 kts 197°
2026-05-07 14:58 60.20861 11.08734 701 ft 72 kts 199°
2026-05-07 14:58 60.20375 11.08473 883 ft 72 kts 193°
2026-05-07 14:58 60.19891 11.08164 1023 ft 76 kts 200°
2026-05-07 14:59 60.19373 11.07878 1180 ft 77 kts 192°
2026-05-07 14:59 60.18839 11.07680 1291 ft 80 kts 188°
2026-05-07 14:59 60.18306 11.07429 1439 ft 76 kts 194°
2026-05-07 14:59 60.17758 11.07103 1478 ft 88 kts 198°
2026-05-07 15:00 60.17154 11.06660 1514 ft 94 kts 202°
2026-05-07 15:00 60.16536 11.06153 1532 ft 98 kts 204°
2026-05-07 15:00 60.15902 11.05658 1573 ft 97 kts 199°
2026-05-07 15:00 60.15257 11.05189 1590 ft 98 kts 198°
2026-05-07 15:01 60.14597 11.04756 1590 ft 101 kts 199°
2026-05-07 15:01 60.13952 11.04284 1672 ft 96 kts 201°
2026-05-07 15:01 60.13316 11.03770 1666 ft 100 kts 202°
2026-05-07 15:01 60.12681 11.03236 1699 ft 100 kts 204°
2026-05-07 15:02 60.12058 11.02667 1734 ft 98 kts 206°
2026-05-07 15:02 60.11451 11.01993 1727 ft 101 kts 208°
2026-05-07 15:02 60.10830 11.01291 1733 ft 101 kts 207°
2026-05-07 15:02 60.10199 11.00630 1686 ft 106 kts 209°
2026-05-07 15:03 60.09542 10.99960 1663 ft 105 kts 208°
2026-05-07 15:03 60.08851 10.99499 1634 ft 107 kts 194°
2026-05-07 15:03 60.08117 10.99271 1622 ft 104 kts 186°
2026-05-07 15:03 60.07405 10.99219 1616 ft 105 kts 175°
2026-05-07 15:04 60.06710 10.99553 1649 ft 103 kts 162°
2026-05-07 15:04 60.06033 11.00076 1673 ft 101 kts 160°
2026-05-07 15:04 60.05373 11.00586 1673 ft 102 kts 160°
2026-05-07 15:04 60.04718 11.01165 1649 ft 104 kts 156°
2026-05-07 15:05 60.04058 11.01829 1602 ft 108 kts 154°
2026-05-07 15:05 60.03399 11.02545 1553 ft 111 kts 154°
2026-05-07 15:05 60.02711 11.03269 1477 ft 112 kts 153°
2026-05-07 15:05 60.02024 11.04040 1405 ft 114 kts 152°
2026-05-07 15:06 60.01321 11.04770 1362 ft 112 kts 154°
2026-05-07 15:06 60.00613 11.05485 1270 ft 115 kts 155°
2026-05-07 15:06 59.99914 11.06178 1252 ft 108 kts 154°
2026-05-07 15:06 59.99251 11.06816 1215 ft 105 kts 159°
2026-05-07 15:07 59.98566 11.07316 1170 ft 104 kts 163°
2026-05-07 15:07 59.97871 11.07645 1090 ft 103 kts 171°
2026-05-07 15:07 59.97170 11.07823 974 ft 100 kts 182°
2026-05-07 15:07 59.96603 11.07310 815 ft 82 kts 234°
2026-05-07 15:08 59.96415 11.06331 631 ft 69 kts 265°
2026-05-07 15:08 59.96492 11.05434 484 ft 66 kts 293°
2026-05-07 15:08 59.96717 11.04652 366 ft 60 kts 301°
2026-05-07 15:08 59.96848 11.04250 359 ft 7 kts 314°
2026-05-07 15:09 59.96851 11.04224 359 ft 5 kts 127°
2026-05-07 15:09 59.96787 11.04429 361 ft 21 kts 123°
2026-05-07 15:09 59.96723 11.04687 364 ft 18 kts 71°
2026-05-07 15:09 59.96739 11.04892 364 ft 9 kts 69°
2026-05-07 15:10 59.96761 11.04902 364 ft 0 kts 317°